OpenBCM V1.07b12 (Linux)

Packet Radio Mailbox

DB0FHN

[JN59NK Nuernberg]

 Login: GUEST





  
I6KZR  > KEPLER   22.01.03 12:50l 324 Lines 15801 Bytes #999 (0) @ WW
BID : 12052_TG0AA
Read: DB0FHN GUEST
Subj: 2L Keplerian Elements #016
Path: DB0FHN<DB0RGB<OK0PPL<RZ6HXA<SP7MGD<TG0AA
Sent: 030118/1614Z @:TG0AA.GTM.CEAM #:12052 [Ciudad de Guat] FBB7.00g $:12052_T
From: I6KZR@TG0AA.GTM.CEAM
To  : KEPLER@WW


From: I6KZR@IK6WID.#AP.IMAR.ITA.EU
To  : KEPLER@WW


OSCAR 7
1 07530U 74089B   03014.65656427 -.00000029  00000-0  10000-3 0  1428
2 07530 101.7676  62.7629 0012584 145.8142 214.3745 12.53563601288817
GOES 2
1 10061U 77048A   03005.42586557 -.00000270  00000-0  00000+0 0   466
2 10061  14.1214  13.7857 0013992 196.1981 163.7785  0.99397401 38395
GOES 3
1 10953U 78062A   03015.03203425 -.00000082  00000-0  00000+0 0  8910
2 10953  13.3943  17.4961 0004480 339.0428  20.9716  1.00278125 43150
GOES 6
1 14050U 83041A   03016.14731837  .00000000  00000-0  10000-3 0  4135
2 14050  10.3589  35.7489 0003271 352.2942   7.7428  1.00288535130312
OSCAR 10
1 14129U 83058B   03013.46521539 -.00000313  00000-0  10000-3 0  9119
2 14129  25.8708 170.2888 6042226 318.8494   8.5240  2.05869613119327
OSCAR 11 (UoSAT 2)
1 14781U 84021B   03015.55691930  .00002198  00000-0  31260-3 0   450
2 14781  98.1125 349.2332 0009166 328.5434  31.5229 14.77885364 11216
NOAA 10
1 16969U 86073A   03015.96372026  .00000241  00000-0  11705-3 0  6282
2 16969  98.7262  10.1511 0012365 181.2923 178.8228 14.27049626849119
GOES 7
1 17561U 87022A   03013.52827387  .00000116  00000-0  10000-3 0  8102
2 17561   7.5470  55.7264 0004064 288.6625 149.4031  1.00317770 41389
COSMOS 1861
1 18129U 87054A   03014.96079564 +.00000081 +00000-0 +71695-4 0 01936
2 18129 082.9236 172.1432 0011171 330.7665 029.2861 13.72697033779769
EUTELSAT 1-F4 (ECS 4)
1 18351U 87078B   03012.43322123 -.00000256  00000-0  10000-3 0   263
2 18351   7.1229  58.6128 0004965 185.0153 173.9598  0.98817566 42310
NOAA 11
1 19531U 88089A   03015.98366486  .00000247  00000-0  15229-3 0  4665
2 19531  98.9074  97.4707 0011075 300.5014  59.5065 14.14520440738057
ASTRA 1A
1 19688U 88109B   03014.99740913  .00000054  00000-0  10000-3 0  5571
2 19688   1.3098  95.0777 0004052 195.2086 188.0162  1.00274118 31859
OSCAR 14 (UOSAT 3)
1 20437U 90005B   03016.15156812  .00000199  00000-0  90773-4 0  1428
2 20437  98.2781  61.3543 0010266 305.7836  54.2391 14.31225578677712
OSCAR 15 (UOSAT 4)
1 20438U 90005C   03014.60775212 +.00000129 +00000-0 +65636-4 0 07674
2 20438 098.2526 049.1608 0009730 322.7530 037.2973 14.30187345677164
OSCAR 16 (PACSAT)
1 20439U 90005D   03016.17193492  .00000259  00000-0  11339-3 0  8386
2 20439  98.3230  72.8602 0010514 311.9591  48.0702 14.31457712677758
OSCAR 17 (DOVE)
1 20440U 90005E   03015.74801290  .00000261  00000-0  11329-3 0  7204
2 20440  98.3430  76.2682 0010773 312.4728  47.5545 14.31733637677766
OSCAR 18 (WEBERSAT)
1 20441U 90005F   03015.52559383  .00000212  00000-0  95432-4 0  9884
2 20441  98.3405  75.2884 0011257 314.1003  45.9255 14.31538780677712
OSCAR 19 (LUSAT)
1 20442U 90005G   03015.71755215  .00000238  00000-0  10476-3 0  9408
2 20442  98.3541  78.4358 0011653 312.3548  47.6659 14.31701584677798
JAS 1B (FUJI 2)
1 20480U 90013C   03014.93253251 +.00000018 +00000-0 +10455-3 0 04593
2 20480 099.0413 344.2016 0540896 082.3042 283.9111 12.83328180606073
HST
1 20580U 90037B   03016.11299206  .00010306  00000-0  84554-3 0  2996
2 20580  28.4668 255.3947 0003826 273.6554 216.0156 14.97686959497619
EUTELSAT 2-F1
1 20777U 90079B   03014.98241427 -.00000083  00000-0  10000-3 0   158
2 20777   3.4189  84.8534 0001209 164.4729 294.4286  1.00271934 25758
FENGYUN 1B
1 20788U 90081A   03015.56692020  .00000095  00000-0  90902-4 0  8584
2 20788  99.0228 358.0881 0015362 325.7021  34.3152 14.02140145632772
EUTELSAT 2-F2
1 21056U 91003B   03015.13799191  .00000137  00000-0  10000-3 0  6101
2 21056   2.6484  88.2265 0002557 220.6689 263.3892  1.00276352 31534
INFORMATOR 1
1 21087U 91006A   03015.06461279  .00000078  00000-0  65368-4 0  5913
2 21087  82.9411 342.9553 0035785 349.3789  10.6608 13.74922286600143
COSMOS 2123
1 21089U 91007A   03014.59682148 +.00000066 +00000-0 +53887-4 0 04990
2 21089 082.9205 207.3200 0030569 025.5780 334.6874 13.74400241598982
ASTRA 1B
1 21139U 91015A   03013.00000000  .00000139  00000-0  10000-3 0  1572
2 21139   0.0122 319.8851 0002995  65.1991 106.1713  1.00273184 31823
METEOSAT 5 (MOP 2)
1 21140U 91015B   03013.79937034  .00000033  00000-0  10000-3 0  6743
2 21140   5.5436  70.1592 0006787 127.4334 266.1645  1.00269198 45699
NOAA 12
1 21263U 91032A   03015.99260914  .00000455  00000-0  21229-3 0  9328
2 21263  98.6224   6.1963 0013381 116.7227 243.5324 14.25055894606439
OSCAR 22 (UoSAT 5)
1 21575U 91050B   03015.85702611  .00000423  00000-0  14996-3 0  7016
2 21575  98.1368   9.6869 0006420 233.2706 126.7895 14.39128060603438
METEOR 3-5
1 21655U 91056A   03014.95524792 +.00000051 +00000-0 +10000-3 0 05414
2 21655 082.5553 063.3232 0012528 288.1423 071.8335 13.16977737548920
UARS
1 21701U 91063B   03015.43832824  .00001355  00000-0  11934-3 0  8009
2 21701  56.9785 170.1857 0006051 113.7024 246.4647 15.02780334620589
EUTELSAT 2-F3
1 21803U 91083A   03011.83353589 +.00000143 +00000-0 +10000-3 0 05071
2 21803 002.5029 089.5025 0002836 216.3742 126.5174 01.00274794036613
INMARSAT 2-F3
1 21814U 91084B   03015.48862693  .00000129  00000-0  10000-3 0  6008
2 21814   1.6772  56.8728 0002397 249.8128 201.6829  1.00273440 40555
INMARSAT 2-F4
1 21940U 92021B   03011.73058354 -.00000338  00000-0  10000-3 0  5636
2 21940   2.3763  17.8930 0001952 236.1416 228.8141  1.00271383 39303
EUTELSAT 2-F4
1 22028U 92041B   03016.26524307 -.00000083  00000-0  10000-3 0  3179
2 22028   1.6368  93.0537 0005956 210.0088 255.3866  1.00272365 31444
OSCAR 23 (KITSAT 1)
1 22077U 92052B   03014.97171110 -.00000037 +00000-0 +10000-3 0 01527
2 22077 066.0844 198.1805 0014887 281.8513 078.0836 12.86407652489853
ASTRA 1C
1 22653U 93031A   03013.00000000  .00000139  00000-0  10000-3 0  7839
2 22653   0.0122 319.8851 0002995  65.1991 106.1253  1.00273184 30520
METEOR 2-21
1 22782U 93055A   03016.19534194  .00000184  00000-0  15304-3 0  4937
2 22782  82.5484 241.3652 0023747  80.6102 279.7762 13.83529660473475
KITSAT B
1 22825U 93061C   03016.21184404  .00000189  00000-0  91160-4 0  4637
2 22825  98.2782  47.6052 0008772   4.6876 355.4386 14.28929979485119
POSAT 1
1 22826U 93061D   03014.63703840 +.00000179 +00000-0 +86548-4 0 03084
2 22826 098.2786 047.2085 0009549 007.2507 352.8814 14.29150732484939
ITAMSAT
1 22828U 93061F   03015.60565515  .00000179  00000-0  86200-4 0  4029
2 22828  98.2748  48.3925 0010277 344.0744  16.0113 14.29495575453270
EYESAT A
1 22829U 93061G   03016.11082608  .00000325  00000-0  14245-3 0  4262
2 22829  98.2770  49.4607 0010039 343.2195  16.8653 14.29749771485274
METEOSAT 6
1 22912U 93073B   03014.96859376  .00000079  00000-0  00000+0 0  6362
2 22912   2.5974  82.5803 0000959 201.7892 187.6088  1.00272397 31950
GOES 8
1 23051U 94022A   03015.31069065 -.00000228  00000-0  00000+0 0  5603
2 23051   0.2169 106.2505 0002321 195.7323 208.7561  1.00259250 39463
ASTRA 1D
1 23331U 94070A   03015.11583913  .00000158  00000-0  00000+0 0  8028
2 23331   0.0498 213.9539 0001204 121.1357 204.8994  1.00270844 30526
RADIO ROSTO
1 23439U 94085A   03014.70368265 -.00000028 +00000-0 +42348-3 0 06815
2 23439 064.8164 097.8615 0147716 121.9918 239.5454 11.27548168331669
NOAA 14
1 23455U 94089A   03015.98769495  .00000181  00000-0  12150-3 0  4879
2 23455  99.1879  33.6715 0008922 327.5977  32.4646 14.13283552414738
HIMAWARI 5 (GMS 5)
1 23522U 95011B   03015.18845073 -.00000262  00000-0  00000+0 0   558
2 23522   1.6719  83.0506 0000788  99.3722 139.8636  1.00269565 28546
HOT BIRD 1
1 23537U 95016B   03013.80550721  .00000107  00000-0  10000-3 0  5332
2 23537   0.0070 236.2796 0008090  86.9786  92.5958  1.00275871 28611
GOES 9
1 23581U 95025A   03015.45348737  .00000103  00000-0  00000+0 0  4730
2 23581   0.3637 278.0489 0007648 224.5799   6.0094  1.00034563 28024
INMARSAT 3-F1
1 23839U 96020A   03015.66256007  .00000035  00000-0  00000+0 0  8506
2 23839   0.0480  13.1970 0005506 300.1486 103.7184  1.00273536 24870
ASTRA 1F
1 23842U 96021A   03013.00000000  .00000139  00000-0  10000-3 0  5560
2 23842   0.0122 319.8851 0002995  65.1991 106.1837  1.00273184 24757
JAS 2
1 24278U 96046B   03015.44755404  .00000036  00000-0  76117-4 0  5531
2 24278  98.5274 171.3064 0350284 305.0640  51.8105 13.52869265316694
UNAMSAT
1 24305U 96052B   03014.88409927  .00000205  00000-0  20364-3 0  6544
2 24305  82.9284 288.4251 0029788 304.0959  55.7360 13.73447983318729
INMARSAT 3-F2
1 24307U 96053A   03015.26291836 -.00000104  00000-0  00000+0 0   711
2 24307   0.0296  18.6258 0003303 295.1229 239.6493  1.00272002 23278
HOT BIRD 2
1 24665U 96067A   03013.80550721  .00000107  00000-0  10000-3 0  3396
2 24665   0.0284 278.7326 0008090  44.5257  92.5403  1.00273403 22904
INMARSAT 3-F3
1 24674U 96070A   03015.36610176  .00000059  00000-0  10000-3 0  9699
2 24674   0.0616 309.6940 0004199 346.1003 128.5109  1.00270259 22241
GOES 10
1 24786U 97019A   03016.34654569  .00000105  00000-0  00000+0 0  5053
2 24786   0.0588 111.3788 0003160 208.9721 144.6281  1.00280693 21006
INMARSAT 3-F4
1 24819U 97027A   03013.17016638 -.00000266  00000-0  10000-3 0  8659
2 24819   0.0686 297.8154 0003903 358.0496 183.5915  1.00271479 20647
FENGYUN 2A
1 24834U 97029A   03008.98957809 -.00000188  00000-0  00000+0 0  9429
2 24834   2.4721  88.7751 0002867 256.9049 204.9633  1.00265824 20437
HOT BIRD 3
1 24931U 97049A   03013.80550721  .00000107  00000-0  10000-3 0  4204
2 24931   0.0673 233.2523 0010443 100.7649  81.7511  1.00274844 19728
METEOSAT 7
1 24932U 97049B   03014.88154522  .00000016  00000-0  00000+0 0  2272
2 24932   0.1461  49.6528 0001132 224.3437 157.2137  1.00274030 19676
